EHI
0 0 0 0 0 0 0 0 0 0 0 0 0 0 0 0 0 0 0 0 0 0 0 0 0 0 0 0 0 0 0 0 0 0 0 0 0 0 0 0 0 0 0
0 0 0 0 0 0 0 0 0 0 0 0 0 0 0 0 0 0 0 0 0 0 0 0 0 0 0 0 0 0 0 0 0 0 0 0 0 0 0 0 0 0 0
0 0 0 0 0 0 0 0 0 0 0 0 0 0 0 0 0 0 0 0 0 0 0 0 0 0 0 0 0 0 0 0 0 0 0 0 0 0 0 0 0 0 0
0 0 0 0 0 0 0 0 0 0 0 0 0 0 0 0 0 0 0 0 0 0 0 0 0 0 0 0 0 0 0 0 0 0 0 0 0 0 0 0 0 0 0
0 0 0 0 0 0 0 0 0 0 0 0 0 0 0 0 0 0 0 0 0 0 0 0 0 0 0 0 0 0 0 0 0 0 0 0 0 0 0 0 0 0 0
0 0 0 0 0 0 0 0 0 0 0 0 0 0 0 0 0 0 0 0 0 0 0 0 0 0 0 0 0 0 0 0 0 0 0 0 0 0 0 0 0 0 0
0 0 0 0 0 0 0 0 0 0 0 0 0 0 0 0 0 0 0 0 0 0 0 0 0 0 0 0 0 0 0 0 0 0 0 0 0 0 0 0 0 0 0
0 0 0 0 0 0 0 0 0 0 0 0 0 0 0 0 0 0 0 0 0 0 0 0 0 0 0 0 0 0 0 0 0 0 0 0 0 0 0 0 0 0 0
0 0 0 0 0 0 0 0 0 0 0 0 0 0 0 0 0 0 0 0 0 0 0 0 0 0 0 0 0 0 0 0 0 0 0 0 0 0 0 0 0 0 0
0 0 0 0 0 0 0 0 0 0 0 0 0 0 0 0 0 0 0 0 0 0 0 0 0 0 0 0 0 0 0 0 0 0 0 0 0 0 0 0 0 0 0
0 0 0 0 0 0 0 0 0 0 0 0 0 0 0 0 0 0 0 0 0 0 0 0 0 0 0 0 0 0 0 0 0 0 0 0 0 0 0 0 0 0 0
0 0 0 0 0 0 0 0 0 0 0 0 0 0 0 0 0 0 0 0 0 0 0 0 0 0 0 0 0 0 0 0 0 0 0 0 0 0 0 0 0 0 0
0 0 0 0 0 0 0 0 0 0 0 0 0 0 0 0 0 0 0 0 0 0 0 0 0 0 0 0 0 0 0 0 0 0 0 0 0 0 0 0 0 0 0
0 0 0 0 0 0 0 0 0 0 0 0 0 0 0 0 0 0 0 0 0 0 0 0 0 0 0 0 0 0 0 0 0 0 0 0 0 0 0 0 0 0 0
0 0 0 0 0 0 0 0 0 0 0 0 0 0 0 0 0 0 0 0 0 0 0 0 0 0 0 0 0 0 0 0 0 0 0 0 0 0 0 0 0 0 0
0 0 0 0 0 0 0 0 0 0 0 0 0 0 0 0 0 0 0 0 0 0 0 0 0 0 0 0 0 0 0 0 0 0 0 0 0 0 0 0 0 0 0
0 0 0 0 0 0 0 0 0 0 0 0 0 0 0 0 0 0 0 0 0 0 0 0 0 0 0 0 0 0 0 0 0 0 0 0 0 0 0 0 0 0 0
0 0 0 0 0 0 0 0 0 0 0 0 0 0 0 0 0 0 0 0 0 0 0 0 0 0 0 0 0 0 0 0 0 0 0 0 0 0 0 0 0 0 0
0 0 0 0 0 0 0 0 0 0 0 0 0 0 0 0 0 0 0 0 0 0 0 0 0 0 0 0 0 0 0 0 0 0 0 0 0 0 0 0 0 0 0
0 0 0 0 0 0 0 0 0 0 0 0 0 0 0 0 0 0 0 0 0 0 0 0 0 0 0 0 0 0 0 0 0 0 0 0 0 0 0 0 0 0 0
0 0 0 0 0 0 0 0 0 0 0 0 0 0 0 0 0 0 0 0 0 0 0 0 0 0 0 0 0 0 0 0 0 0 0 0 0 0 0 0 0 0 0
0 0 0 0 0 0 0 0 0 0 0 0 0 0 0 0 0 0 0 0 0 0 0 0 0 0 0 0 0 0 0 0 0 0 0 0 0 0 0 0 0 0 0
0 0 0 0 0 0 0 0 0 0 0 0 0 0 0 0 0 0 0 0 0 0 0 0 0 0 0 0 0 0 0 0 0 0 0 0 0 0 0 0 0 0 0
0 0 0 0 0 0 0 0 0 0 0 0 0 0 0 0 0 0 0 0 0 0 0 0 0 0 0 0 0 0 0 0 0 0 0 0 0 0 0 0 0 0 0
0 0 0 0 0 0 0 0 0 0 0 0 0 0 0 0 0 0 0 0 0 0 0 0 0 0 0 0 0 0 0 0 0 0 0 0 0 0 0 0 0 0 0
0 0 0 0 0 0 0 0 0 0 0 0 0 0 0 0 0 0 0 0 0 0 0 0 0 0 0 0 0 0 0 0 0 0 0 0 0 0 0 0 0 0 0
Wind_Speed
7 6 5 5 5 4 3 2 1 1 3 4 4 6 7 8 8 8 6 11 15 17 18 19 19 20 20 21 21 22 22 23 24 25 25 26 27 27 28 29 31 32 33
8 7 7 6 5 5 4 3 2 2 3 4 6 7 8 8 8 9 8 9 13 15 17 18 19 19 21 21 22 22 23 24 25 25 26 27 27 28 29 30 31 32 33
10 8 7 7 6 6 6 4 4 3 4 5 7 8 7 9 9 10 10 8 9 12 15 17 18 19 21 22 22 23 24 24 25 26 27 28 28 29 30 31 31 33 34
12 10 8 8 7 6 6 5 4 5 5 6 6 6 7 8 11 10 10 9 8 8 11 15 17 19 21 22 23 24 24 25 26 27 27 28 29 30 31 32 32 33 35
14 11 9 8 8 7 6 6 6 6 6 6 7 7 8 9 10 10 11 11 10 10 9 12 16 19 20 21 22 24 25 25 26 27 28 29 30 31 32 33 33 34 35
15 13 10 11 10 8 8 8 8 7 6 6 7 9 10 10 9 9 10 9 10 11 11 11 11 12 18 20 22 24 25 26 27 28 29 30 31 32 33 34 34 35 36
16 15 11 12 11 10 10 10 9 9 8 6 7 8 9 11 10 8 8 9 10 11 11 12 10 10 10 17 21 23 25 27 28 29 30 31 32 33 34 35 35 36 37
17 15 16 12 12 11 12 12 11 8 7 7 6 6 6 6 8 8 8 9 10 10 11 12 13 13 12 10 15 23 25 27 28 29 31 32 33 34 35 35 36 37 37
19 18 18 15 14 13 12 13 13 13 9 8 8 7 6 5 4 6 10 9 10 10 10 11 14 14 15 13 14 18 24 26 28 30 31 33 34 35 35 36 37 37 37
20 20 19 18 16 14 14 14 14 12 12 9 8 9 9 7 6 6 6 8 10 12 13 12 13 14 16 14 16 23 26 27 29 30 32 33 34 35 36 36 37 37 36
21 21 20 18 17 15 16 15 14 14 12 11 9 8 9 9 11 9 10 9 9 10 11 12 12 13 15 15 14 19 25 27 29 31 32 33 35 36 36 37 37 37 37
16 22 21 19 18 16 17 16 15 16 14 14 11 10 9 9 8 10 12 12 12 11 13 12 13 13 13 14 17 24 26 28 29 31 32 33 34 35 36 37 37 37 37
15 20 20 20 18 18 17 16 16 16 16 16 14 11 10 11 10 10 12 13 15 13 14 13 12 13 12 12 14 22 24 28 29 31 32 33 34 34 36 37 37 37 37
15 17 20 20 20 19 18 16 14 15 14 15 15 15 11 11 11 11 12 12 14 14 15 17 12 13 12 12 16 23 20 27 29 30 31 32 33 35 35 36 37 36 36
13 18 19 20 20 20 19 18 14 16 14 15 15 15 13 11 11 11 11 12 13 15 16 18 14 13 12 13 17 17 18 24 29 31 32 33 34 35 36 36 36 36 35
16 17 18 20 20 20 19 18 15 15 16 15 12 14 14 12 11 11 12 12 13 14 16 15 15 16 16 14 20 20 20 28 31 32 33 34 34 35 35 35 36 35 35
17 18 18 19 20 20 20 19 18 17 17 16 15 15 16 15 12 12 12 12 13 13 17 18 16 17 20 20 18 18 18 19 18 29 32 34 34 35 35 35 35 35 35
17 18 18 19 20 20 20 20 20 19 18 18 17 16 17 13 16 14 12 14 14 15 16 20 18 17 20 20 20 20 18 17 18 26 32 34 34 35 35 35 35 34 34
17 18 19 20 19 19 20 20 19 18 18 18 17 16 16 15 17 14 15 14 13 13 15 17 19 17 16 16 19 19 20 17 18 21 28 30 32 34 34 34 33 33 32
17 17 18 19 18 17 18 18 17 17 17 16 16 16 16 16 17 16 14 15 14 15 16 16 17 16 16 17 16 15 15 15 15 15 20 22 26 31 32 33 33 32 31
16 16 17 18 18 16 16 17 17 17 16 16 16 16 17 19 21 18 14 14 14 14 14 14 15 16 16 14 14 14 16 16 17 14 16 16 16 16 18 23 27 29 29
15 16 17 18 19 15 23 29 21 17 16 16 16 16 16 19 22 26 27 26 22 17 16 15 15 17 18 18 16 15 16 17 18 13 14 15 14 15 15 14 21 26 26
15 16 17 18 20 21 28 30 31 18 17 16 16 14 13 13 18 14 19 24 23 26 26 19 19 19 20 18 19 20 18 19 19 15 15 17 15 16 14 15 25 27 27
14 14 16 18 19 20 28 30 30 22 17 16 16 16 15 14 13 14 13 15 16 16 18 14 15 17 17 18 17 18 19 19 19 15 15 16 15 15 14 14 22 26 27
13 13 14 17 18 19 26 29 28 15 15 17 16 15 15 15 18 20 15 16 17 14 17 22 23 23 27 28 23 15 15 15 17 14 11 13 14 14 14 14 16 24 26
12 12 14 15 17 17 22 27 29 13 14 13 13 13 19 19 19 19 15 14 16 13 12 13 16 17 17 18 22 15 13 13 15 14 10 10 11 10 11 10 9 9 13
Wind_Direction
198 198 200 199 203 200 203 213 240 306 308 313 308 307 305 302 299 297 294 294 298 300 301 302 305 307 308 309 309 311 312 313 313 312 312 312 312 311 310 308 305 302 298
201 200 202 203 205 204 206 214 234 269 284 288 288 289 290 291 287 287 284 287 285 288 292 295 298 301 303 304 305 307 308 308 308 308 307 307 307 306 305 303 302 299 296
206 204 206 204 204 200 203 212 217 245 264 272 275 281 283 282 280 280 279 278 279 277 279 284 289 294 297 300 302 303 303 304 304 303 303 303 303 302 301 299 298 296 293
207 207 209 209 202 200 208 213 223 238 247 260 271 275 275 274 275 274 272 267 267 269 272 275 281 287 292 296 297 298 299 300 300 300 300 299 299 299 298 296 295 293 290
206 208 212 209 201 205 208 211 219 230 244 252 263 272 272 269 270 267 263 261 260 261 266 272 275 280 286 290 292 294 296 297 297 297 297 296 296 295 294 293 292 291 288
205 208 211 210 204 207 208 209 217 220 236 251 264 269 268 267 266 261 259 257 256 257 261 268 273 275 278 284 288 291 292 294 294 294 294 293 293 292 291 290 290 289 286
204 207 210 208 206 211 212 212 216 224 226 230 253 262 258 253 255 252 250 253 255 259 262 265 269 273 278 282 285 288 290 292 292 292 291 290 289 288 287 287 287 287 285
206 206 210 208 206 211 214 213 213 221 225 217 233 266 275 246 223 240 250 255 260 264 264 265 270 274 279 281 281 284 287 289 290 290 289 287 286 285 285 284 285 285 284
209 207 210 210 208 209 212 211 209 216 222 215 217 235 259 279 293 241 247 255 261 264 266 270 272 274 277 279 282 283 284 285 286 287 286 285 283 283 282 282 283 284 284
212 210 210 210 210 209 213 211 210 213 220 227 216 223 236 257 272 287 245 243 252 260 263 267 271 274 275 277 276 280 282 284 284 284 283 283 282 282 282 283 282 284 287
213 211 210 209 210 210 212 211 208 211 214 223 224 221 228 239 238 249 273 276 267 264 267 271 273 273 273 274 275 277 280 282 282 282 282 283 283 283 283 284 284 286 289
211 213 211 210 209 209 209 209 209 211 214 220 225 228 231 234 238 244 263 274 280 280 279 276 274 273 271 271 273 278 280 281 282 282 282 282 282 283 284 285 285 286 287
212 212 208 210 208 208 207 206 208 212 214 218 222 227 231 237 246 255 265 276 280 283 282 276 271 271 272 272 274 278 279 281 281 281 280 280 280 281 282 283 284 284 286
218 213 210 211 209 206 205 204 208 211 214 218 224 227 233 238 241 246 255 271 280 281 280 280 280 278 280 280 277 280 278 278 278 279 279 278 278 278 279 280 281 282 284
221 216 213 213 211 207 204 203 208 210 212 217 222 225 231 238 240 244 249 254 266 279 282 286 287 285 285 282 279 277 276 276 277 277 277 276 276 276 277 277 278 279 281
224 220 216 214 212 208 205 204 207 210 212 216 220 226 231 235 240 243 246 250 252 261 273 280 285 285 286 281 279 278 277 277 277 276 276 276 276 275 276 276 276 277 278
225 223 219 216 213 209 205 205 207 207 212 217 219 224 232 235 240 244 246 249 251 253 264 274 279 283 285 283 281 277 275 275 273 273 274 274 274 274 274 274 273 274 275
228 224 221 218 216 212 207 205 207 207 210 216 220 224 232 233 239 244 247 250 252 253 261 273 279 282 283 283 282 281 278 275 273 274 274 274 274 274 273 273 272 271 271
229 224 221 220 216 212 209 207 207 208 211 216 220 224 230 233 240 243 247 251 253 256 259 266 275 279 281 281 283 281 279 276 275 274 274 273 273 273 273 272 271 270 269
230 227 224 223 219 214 211 208 206 208 212 217 222 226 230 232 239 244 249 253 256 259 262 265 272 278 281 283 282 283 284 282 279 278 275 274 273 273 271 271 269 268 266
232 229 227 225 221 215 211 207 204 206 210 216 223 228 232 235 238 242 244 250 253 257 263 269 275 281 284 288 288 289 289 288 283 280 279 274 273 269 270 268 266 264 262
233 230 228 226 224 218 217 212 205 207 211 216 223 228 234 240 245 249 253 257 259 264 271 275 279 282 286 290 293 291 290 288 287 282 278 276 272 269 266 262 261 261 260
235 231 229 227 229 226 221 218 211 206 212 216 221 227 232 236 242 244 256 264 269 271 271 272 277 281 288 292 292 290 286 284 283 288 285 278 273 269 266 262 263 260 257
237 232 230 229 230 229 224 222 217 212 216 220 223 227 235 240 240 244 250 258 260 263 264 266 268 275 279 283 283 286 289 287 283 278 272 274 274 272 270 265 263 258 254
242 237 234 231 231 231 225 222 218 214 219 224 226 230 235 244 249 251 254 261 267 267 269 272 272 277 282 288 291 291 289 287 287 285 278 273 276 278 275 269 262 257 252
245 240 236 232 232 232 226 222 219 215 219 222 226 229 235 241 248 253 255 262 270 277 280 282 281 283 284 284 286 281 282 282 284 287 280 272 275 279 278 268 264 259 251